Regional Weather Roundup
Issued by NWS Wakefield, VA

Home | Current Version | Previous Version | Text Only | Print | Product List | Glossary Off
Versions: 1 2 3 4 5 6 7 8 9 10 11 12 13 14 15 16 17 18 19 20 21 22 23 24 25 26 27 28 29 30 31 32 33 34 35 36 37 38 39 40 41 42 43 44 45 46 47 48 49 50

834
ASUS41 KAKQ 060815
RWRAKQ

REGIONAL WEATHER ROUNDUP
NATIONAL WEATHER SERVICE WAKEFIELD VA
400 AM EDT FRI MAY 06 2016

Note: "fair" indicates few or no clouds below 12,000 feet with no
significant weather and/or obstructions to visibility. * = Denotes
station may not report precipitation (e.g., rain,snow,etc.),
thunder or fog.

VAZ042-051-052>054-056-060900-
NORTHERN VIRGINIA

CITY           SKY/WX    TMP DP  RH WIND       PRES   REMARKS
WASH NATIONAL  CLOUDY    54  49  83 N10       29.64F
DULLES         CLOUDY    52  48  86 N9        29.65F
FORT BELVOIR   MOCLDY    53  49  88 NW3       29.64F
QUANTICO       LGT RAIN  53  50  89 N10       29.65F
FREDERICKSBRG* LGT RAIN  52  52 100 NW6       29.64S
STAFFORD*      CLOUDY    51  49  93 NW8       29.69S
WARRENTON      DRIZZLE   52  47  83 N8        29.66S
CULPEPER*      RAIN      52  51  98 N5        29.67F
MANASSAS*      CLOUDY    52  52 100 NW8       29.66F
LEESBURG*      LGT RAIN  54  52  94 N7        29.67F
WINCHESTER     LGT RAIN  50  48  93 NW7       29.69S
FRONT ROYAL*   CLOUDY    50  48  93 NW3       29.68S
LURAY*         DRIZZLE   50  50 100 CALM      29.69S
$$

VAZ048-049-060>072-079>083-060900-
CENTRAL AND SOUTH CENTRAL VIRGINIA

CITY           SKY/WX    TMP DP  RH WIND       PRES   REMARKS
RICHMOND       HVY RAIN  51  50  96 NW3       29.64S FOG
CHESTERFIELD*  CLOUDY    52  39  62 CALM      29.66S
PETERSBURG*    LGT RAIN  52  52 100 CALM      29.65S
HANOVER        RAIN      51  50  96 CALM      29.65S FOG
TAPPAHANNOCK*  DRIZZLE   53  53 100 CALM      29.63S
QUINTON*       CLOUDY    50  50 100 W3        29.63S FOG
CHARLOTTSVILLE LGT RAIN  52  48  86 N3        29.66S
GORDONSVILLE*  CLOUDY    51  50  97 N6        29.66S FOG
ORANGE*        DRIZZLE   52  52 100 NE7       29.68S
LOUISA*        CLOUDY    54  52  94 N8        29.64S
BUMPASS*       CLOUDY    51  50  97 N6        29.64S
FARMVILLE*     RAIN      52  52 100 CALM      29.65S
CREWE*         CLOUDY    50  50 100 CALM      29.65S
FORT PICKETT*  NOT AVBL
CHASE CITY*    CLOUDY    50  48  94 CALM      29.66S
CLARKSVILLE*   CLOUDY    50  50 100 N3        29.66S
SOUTH HILL*    CLOUDY    49  49  99 CALM      29.70F
LAWRENCEVILLE* CLOUDY    50  50 100 CALM      29.64S
EMPORIA*       LGT RAIN  50  50 100 W3        29.66S
$$

VAZ088>098-060900-
SOUTHEAST VIRGINIA

CITY           SKY/WX    TMP DP  RH WIND       PRES   REMARKS
NORFOLK        LGT RAIN  52  48  86 E3        29.62S
VIRGINIA BEACH LGT RAIN  54  48  80 CALM      29.61F
NORFOLK NAVAL  LGT RAIN  52  50  93 CALM      29.64S FOG
WEST POINT*    CLOUDY    52  51  97 W3        29.64S
SALUDA*        CLOUDY    51  51 100 N6        29.61F
NEWPORT NEWS   RAIN      52  52 100 CALM      29.63S FOG
LANGLEY AFB    LGT RAIN  52  50  93 VRB1      29.62S FOG
FORT EUSTIS    LGT RAIN  52  52 100 S2        29.61S
WILLIAMSBURG*  CLOUDY    52  52 100 N6        29.64S
HR EXEC AP*      N/A     52  48  87 CALM      29.65S
FRANKLIN*      DRIZZLE   50  49  95 CALM      29.64S
US460-WAKEFLD  LGT RAIN  51  49  92 CALM      29.64S FOG
$$

VAZ020-022-025-037-045-060900-
WEST CENTRAL AND SOUTHWEST VIRGINIA

CITY           SKY/WX    TMP DP  RH WIND       PRES   REMARKS
STAUNTON*      RAIN      51  51 100 N5        29.70S
WAYNESBORO*    CLOUDY    48  47  96 N6        29.68S
HOT SPRINGS VA MIX PCPN  42  42 100 N10       29.68S VSB 3/4
LYNCHBURG      LGT RAIN  50  49  96 CALM      29.68F
DANVILLE       LGT RAIN  49  48  97 NW3       29.68S
SOUTH BOSTON*  CLOUDY    51  49  95 N3        29.67S
MARTINSVILLE   LGT RAIN  46  46  97 CALM      29.71S
ROANOKE        CLOUDY    50  47  89 CALM      29.71F
BLACKSBURG     CLOUDY    48  46  93 W5        29.74S
DUBLIN*        CLOUDY    50  46  86 NW10G17   29.74S
MARION*        LGT RAIN  47  44  88 W9G21     29.79R
HILLSVILLE*    CLOUDY    45  44  95 NW12      29.71S
RICHLANDS*     CLOUDY    44  35  68 NW8       29.79S HAZE
WISE*          CLOUDY    45  43  93 NW8       29.84R
ABINGDON*      CLOUDY    49  45  85 N8        29.80S
$$

MDZ021>025-VAZ099-100-060900-
SOUTHERN MARYLAND AND THE DELMARVA PENINSULA

CITY           SKY/WX    TMP DP  RH WIND       PRES   REMARKS
PATUXENT RIVER CLOUDY    53  48  83 NE13      29.62S
BAY BRIDGE APT NOT AVBL
LEONARDTOWN    CLOUDY    50  48  93 CALM      29.64S
DOVER          LGT RAIN  50  50 100 N6        29.62S
GEORGETOWN     LGT RAIN  49  47  93 NE10      29.62S
EASTON         CLOUDY   N/A N/A N/A NE7       29.67R
CAMBRIDGE        N/A     50  46  87 N7        29.62R
SALISBURY      LGT RAIN  49  47  93 NE9       29.62R FOG
OCEAN CITY     RAIN      48  46  93 NE7       29.63R FOG
WALLOPS ISLAND LGT RAIN  49  47  93 N13G21    29.57F
ACCOMACK*      LGT RAIN N/A N/A N/A N8        29.59R
$$

NCZ012>017-030>032-060900-
NORTH CENTRAL AND EASTERN NORTH CAROLINA

CITY           SKY/WX    TMP DP  RH WIND       PRES   REMARKS
ROANOKE RAPIDS LGT RAIN  50  50 100 CALM      29.64S
RALEIGH        LGT RAIN  50  49  96 CALM      29.66S
ELIZABETH CITY CLOUDY    51  50  96 W3        29.63F
AHOSKIE*       RAIN      50  49  97 S3        29.65S
EDENTON*       CLOUDY    52  52 100 CALM      29.65S
CURRITUCK*     DRIZZLE   51  51  99 W5        29.64R
KILL DEVIL HLS CLOUDY    51  49  95 CALM      29.61S
MANTEO         CLOUDY    51  49  93 CALM      29.63S
CAPE HATTERAS  MOCLDY    53  49  86 NW5       29.63S
TARBORO*       RAIN      52  51  95 CALM      29.65S
GOLDSBORO      CLOUDY    52  52 100 W10       29.62F
WASHINGTON     LGT RAIN  51  50  97 CALM      29.63F
GREENVILLE     CLOUDY    52  52 100 SW3       29.67S
NEW BERN       CLOUDY    52  50  93 SW6       29.66S
WILMINGTON     CLEAR     49  45  86 W9        29.67S
$$

VAZ048-060900-
ELSEWHERE

CITY           SKY/WX    TMP DP  RH WIND       PRES   REMARKS
HARRISBURG PA  CLOUDY    53  48  83 NW3       29.67S
BALTIMORE      CLOUDY    53  48  83 N8        29.63F
ANNAPOLIS      CLOUDY    54  50  86 E5        29.63S
ANDREWS AFB    CLOUDY    52  49  90 N7        29.63R
PHILADELPHIA   LGT RAIN  52  47  83 NE6       29.65F
HENDERSON NC   LGT RAIN  50  50 100 CALM      29.66S
GREENSBORO     LGT RAIN  48  47  96 NW5       29.68S
ROCKY MOUNT    LGT RAIN  51  51 100 N7        29.64S
$$

VAZ100-060900-
MARINE

STATION/POSITION TIME  TEMP    WIND        PRES    WAVE   SWELL
                       AIR SEA DIR/SP/G            HT/PER HT/PER
                 (UTC) (F)     (DEG/KT/KT) (MB)    (FT/S) (FT/S)
BRANDYWINE LGT   0700   50      50/ 23/ 27 1002.5F
CAPE MAY NJ      0700   49 56   20/  5/  9 1002.6F
LEWES DE         0700   50 55   40/ 17/ 20 1002.7F
15NM E FENWICK I 0750   48 51              1001.6S   9/ 8
OCEAN-CITY-INLET 0700   49 54   70/  6/ 12 1002.2F
WACHAPREAGUE VA  0700   49 56   10/  9/ 14 1001.3F
THOMAS POINT MD  0800   53 57   40/  7/  9 1004.6F
GOOSES REEF MD   0700   54 58   50/  8/ 10 1004.3F   1
COVE POINT MD    0700   51      60/  6/  9 1003.6F
SOLOMONS ISLAND  0700   53 60   50/  5/  7   N/A
BISHOPS HEAD MD  0700   52 57   30/  9/ 16 1001.8F
PINEY POINT MD   0700           10/  7/  7   N/A
POTOMAC MD       0700   53 59   30/ 14/ 16 1001.9F   1
CAMBRIDGE MD     0700   53 60   30/  9/ 13 1002.2F
LEWISETTA VA     0700   54 60   50/  7/ 10 1002.7F
RAPPAHANNOCK LGT 0700           30/ 16/ 18 1002.6F
STINGRAY PT      0700   54 61   50/ 12/ 16 1002.9F   2/ 3
YORK RVR RNG VA  0700   53      20/ 10/ 12 1002.2S
YORKTOWN VA      0700   53 62  300/  5/  7 1002.8S
JAMESTOWN VA     0700   52 66  330/  4/  6   N/A     0
DOMINION TERM VA 0700   52      CALM  /  1 1003.3F
KIPTOPEKE VA     0700      60  340/  6/  9   N/A
CHES BAY BRIDGE  0700   51 61   10/  4/  6 1002.8R
CAPE HENRY VA    0700   51      10/  9/ 12   N/A
CHESAPEAKE LGHT  0700   50      50/  4/  5 1004.0R
WILLOUBY STN VA  0700   52      30/  5/  6 1004.2R
CAPE HENRY BUOY  0712      55                N/A     6/ 7
CAPE CHARLES BUO 0726      57                N/A     6/ 7   5/ 7
OFFSHORE WE BUOY 0721      54                N/A     7/ 8   7/ 8
64NM E OF VA BCH 0750   49 51  340/ 14/ 16 1001.1R   8/ 9   7/ 9
DUCK PIER NC     0700   52 61  360/  8/ 10 1002.3F
44100 DUCK FRF   0724      55                N/A     6/ 8
44056 DUCK FRF   0711      60                N/A     6/ 8
OREGON INLET NC  0700   52 60  320/  4/  5 1003.1F
HATTERAS NC      0700   55 66  320/  7/  9 1002.9F
DIAMOND SHLS NC  0750   56 77  340/  8/ 10 1003.3F   4/ 8   5/ 8
CAPE LOOKOUT NC  0700   56     260/  1/  4 1003.4F
$$




USA.gov is the U.S. government's official web portal to all federal, state and local government web resources and services.